Location: McFarlands Corners
(41.4117°N, 81.3382°W)
Time: 10:50:52
(UTC+00:00)

Tiros 1 despin weight - Visible Passes

Search period start: 16 February 2026 00:00
Search period end: 26 February 2026 00:00
Orbit: 557 x 594 km, 48.2° (Epoch: 15 February)

Date Brightness Start Highest point End Pass type
(mag) Time Alt. Az. Time Alt. Az. Time Alt. Az.
16 Feb ? 01:09:27 10° WNW 01:12:32 34° NNW 01:12:32 34° NNW visible
16 Feb ? 23:31:03 10° WNW 23:34:50 32° N 23:38:38 10° ENE visible
17 Feb ? 01:11:58 10° WNW 01:15:02 38° NNW 01:15:02 38° NNW visible
17 Feb ? 23:33:44 10° WNW 23:37:32 32° N 23:41:21 10° ENE visible
18 Feb ? 01:14:29 10° WNW 01:17:34 44° NNW 01:17:34 44° NNW visible
18 Feb ? 23:36:21 10° WNW 23:40:13 34° N 23:43:58 11° ENE visible
19 Feb ? 01:16:57 10° WNW 01:20:08 50° NW 01:20:08 50° NW visible
19 Feb ? 23:38:54 10° WNW 23:42:52 39° NNE 23:46:36 11° E visible
20 Feb ? 01:19:29 10° WNW 01:22:46 52° W 01:22:46 52° W visible
20 Feb ? 23:41:24 10° WNW 23:45:28 47° NNE 23:49:18 11° E visible
21 Feb ? 01:22:02 10° WNW 01:25:29 43° WSW 01:25:29 43° WSW visible
21 Feb ? 23:43:52 10° WNW 23:48:02 61° NNE 23:52:05 11° ESE visible
22 Feb ? 01:24:43 10° WNW 01:28:17 30° SW 01:28:17 30° SW visible
22 Feb ? 23:46:19 10° WNW 23:50:32 84° NNE 23:54:45 10° ESE visible
23 Feb ? 01:27:38 10° W 01:30:43 20° SW 01:31:13 19° SW visible
23 Feb ? 23:48:48 10° WNW 23:52:58 68° SSW 23:57:09 10° SE visible
24 Feb ? 01:31:09 10° WSW 01:32:56 12° SW 01:34:17 11° SSW visible
24 Feb ? 23:51:20 10° WNW 23:55:21 45° SW 23:59:22 10° SE visible
